Search for airport 
image banner adimage banner ad
image banner ad

VEBR - Barrackpore (Iaf)

Located in , India

ICAO - , IATA -

Data provided by Airmate  

General information

Coordinates: N22°46'57" E88°21'46"
Elevation is feet MSL.
 
Rated:
View ratings: [VIEW]


View others Airports in West Bengal

Operational data

Open for public use
Current time UTC:
Current local time:
Weather at : VECC - Kolkata ( 17 km )
METAR: VECC 211900Z 00000KT 2600 HZ NSC 21/17 Q1018 NOSIG
TAF: TAF VECC 211700Z 2118/2203 00000KT 2500 HZ NSC BECMG 2200/2202 1000 BR
View NOTAMs / SUP AIP / TFR affecting this airport [VIEW]
Communications frequencies: [VIEW]

Runways:

Airport contact information

Address: India

Satellite view of VEBR